Flag for U.S.A. Weather past 2 weeks in Ann Arbor, Michigan, U.S.A.

Now
32 °F

Ice fog.


Feels Like: 32 °F
Forecast: 37 / 61 °F
Wind: No wind

Location: Ann Arbor Municipal Airport

Current Time: Oct 24, 2014 at 8:30:57 AM

Latest Report: Oct 24, 2014 at 7:59 AM


Visibility: 1 mi

Pressure: 30.08 "Hg

Humidity: 85%

Dew point: 28 °F

Location of Ann ArborLocation

Historic Weather in Ann Arbor — Graph

°F

Ann Arbor temperature yesterday

Maximum temperature yesterday: 58 °F (at 3:53 PM)
Minimum temperature yesterday: 27 °F (at 7:53 AM)
Average temperature yesterday: 41 °F

Past Weeks' High & Low Weather Summary

 TemperatureHumidityPressure
High71 °F (Oct 13, 4:53 PM)96% (Oct 12, 4:53 AM)30.36 "Hg (Oct 12, 4:53 AM)
Low25 °F (Oct 19, 7:53 AM)29% (Oct 11, 4:53 PM)29.51 "Hg (Oct 17, 1:53 PM)
Average50 °F74%29.98 "Hg
* Reported Oct 9 6:53 AM — Oct 24 6:53 AM, Ann Arbor, Weather by CustomWeather, © 2014

Note: Actual official high and low records may vary slightly from our data, if they occured in-between our weather recording intervals... More about our weather records

Advertising

Ann Arbor weather history for previous 24 hours

 ConditionsComfort  
Time TempWeatherWind HumidityBarometerVisibility
6:53 AM
Oct 24
29 °FIce fog.No wind93%30.10 "Hg1 mi
5:58 AM32 °FIce fog.No wind88%30.08 "Hg3 mi
4:53 AM32 °FClear.3 mph88%30.09 "Hg8 mi
3:53 AM30 °FClear.3 mph92%30.10 "Hg8 mi
2:53 AM33 °FClear.No wind92%30.10 "Hg9 mi
1:53 AM32 °FIce fog.3 mph92%30.09 "Hg4 mi
12:53 AM31 °FIce fog.No wind92%30.11 "Hg1 mi
11:53 PM
Oct 23
33 °FClear.3 mph92%30.12 "Hg10 mi
10:53 PM35 °FClear.No wind92%30.12 "Hg9 mi
9:53 PM36 °FClear.No wind89%30.12 "Hg10 mi
8:53 PM39 °FClear.No wind82%30.14 "Hg10 mi
7:53 PM40 °FClear.No wind83%30.12 "Hg10 mi
6:53 PM47 °FSunny.No wind66%30.13 "Hg10 mi
5:53 PM54 °FSunny.3 mph53%30.14 "Hg10 mi
4:53 PM58 °FSunny.7 mph46%30.14 "Hg10 mi
3:53 PM58 °FSunny.No wind46%30.15 "Hg10 mi
2:53 PM57 °FSunny.N/A49%30.17 "Hg10 mi
1:53 PM55 °FSunny.5 mph53%30.20 "Hg10 mi
12:53 PM53 °FSunny.3 mph59%30.24 "HgN/A
11:53 AM52 °FSunny.9 mph64%30.25 "HgN/A
10:53 AM50 °FSunny.7 mph68%30.26 "HgN/A
9:53 AM40 °FSunny.No wind89%30.26 "HgN/A
8:53 AM32 °FClear.3 mph92%30.26 "HgN/A
Weather by CustomWeather, © 2014

See weather overviewHow to use our weather pages